Wind_Speed
17 15 13 13 13 14 14 15 16 17 19 20 21 23 25 28 31 31 21 24 26 28 35 33 39 25 19 24 19 16 15 15 18
17 17 17 17 15 14 15 17 17 16 19 21 23 25 27 29 30 31 14 20 25 24 39 32 19 19 19 21 20 17 14 14 15
18 17 18 20 19 19 18 17 19 20 16 21 25 26 27 29 31 26 10 7 12 15 36 35 32 24 18 22 20 17 17 16 15
23 20 19 19 20 19 20 21 19 19 18 23 25 27 27 27 29 27 23 10 11 12 12 30 34 24 22 22 20 21 20 20 18
24 25 24 24 24 22 21 22 22 21 20 23 23 24 24 25 25 26 26 16 14 22 23 24 18 19 21 20 22 21 23 22 22
20 25 25 25 26 25 21 22 22 21 21 22 23 22 21 22 23 20 16 21 9 13 20 21 19 15 19 24 25 26 25 24 22
25 23 25 24 29 24 22 22 20 21 21 20 21 21 20 20 21 20 17 12 14 12 6 4 11 18 17 27 29 32 30 25 24
28 29 29 26 28 26 24 24 21 20 20 20 20 21 21 22 20 21 18 15 12 11 13 9 11 14 15 14 13 22 34 20 20
30 28 30 29 30 27 25 26 25 20 20 23 23 23 23 22 21 22 22 19 17 14 14 13 13 15 14 11 10 7 12 12 15
31 30 29 32 29 25 26 28 26 25 23 24 24 24 24 23 21 19 19 20 18 18 18 17 16 15 14 13 12 13 16 14 14
31 31 31 33 32 28 28 30 28 23 23 23 22 24 25 26 23 21 19 18 19 19 20 20 20 19 17 16 16 15 16 15 14
32 31 30 29 30 31 32 34 32 27 27 29 26 25 27 24 25 24 21 21 22 22 23 23 23 24 23 22 20 19 19 19 18
27 29 29 28 29 33 36 34 28 28 28 28 26 26 24 25 25 25 24 23 23 24 23 24 24 24 24 24 24 24 24 24 24
31 32 30 29 30 30 33 36 36 34 34 32 29 31 29 29 30 29 27 26 25 25 25 25 25 25 26 24 25 27 27 29 29
35 33 29 33 35 36 36 39 38 34 35 37 35 34 31 32 33 34 34 31 29 27 27 26 27 27 27 27 28 29 29 30 32
31 33 35 35 35 38 39 40 38 37 36 39 38 36 35 36 35 35 35 34 33 33 31 30 30 30 31 32 32 32 33 32 33
37 36 36 37 39 41 40 41 41 39 36 36 36 37 37 39 39 39 39 37 37 35 34 35 35 35 36 36 36 35 36 34 34
38 38 40 41 44 45 43 42 42 43 43 42 41 42 42 41 42 42 42 41 38 37 36 37 38 38 40 40 40 38 40 40 37
42 44 46 47 46 46 45 45 44 45 45 46 45 44 44 43 44 44 43 42 41 40 40 39 40 41 43 43 43 41 41 41 41
45 48 50 48 47 46 45 44 42 42 42 42 40 39 40 40 41 42 41 42 43 43 42 43 44 43 42 43 44 45 43 41 41
Wind_Direction
321 327 344 351 356 359 356 354 351 353 355 350 346 342 337 336 330 322 288 259 244 260 232 240 232 231 236 252 256 256 262 274 283
311 319 334 338 338 340 341 344 346 337 343 345 344 341 339 341 339 327 270 242 231 239 222 227 224 231 212 244 249 250 261 275 290
308 313 325 332 334 335 336 339 339 344 338 343 342 338 336 343 347 343 231 248 242 245 224 232 223 234 237 240 249 250 250 266 279
305 309 316 330 334 334 334 338 341 337 324 331 335 335 335 343 347 359 345 245 222 216 223 229 216 217 233 240 251 256 255 253 263
304 310 319 329 330 332 333 338 340 340 336 328 333 332 336 339 348 359 357 357 248 191 200 210 206 219 238 247 256 257 249 252 255
295 302 313 316 326 325 328 336 336 335 332 326 327 333 332 337 342 349 7 0 338 269 272 272 231 250 254 253 254 259 253 257 261
293 295 306 317 318 317 319 328 329 326 325 324 324 328 328 329 331 338 342 349 352 342 1 318 255 266 274 265 256 261 264 261 261
292 297 301 308 314 310 309 319 324 322 322 325 324 322 318 317 319 319 324 326 320 311 316 310 303 295 298 295 285 265 253 265 267
286 292 299 305 309 303 301 314 316 314 313 318 318 319 319 317 312 307 309 309 305 300 292 285 299 301 305 308 323 309 271 277 274
284 288 294 300 301 296 299 307 309 306 311 314 316 322 326 324 319 313 305 296 292 293 291 289 284 276 267 271 278 288 287 279 287
282 289 296 299 300 300 303 302 304 292 299 305 308 315 323 324 322 316 307 301 295 292 290 288 287 286 284 281 277 273 274 282 285
282 285 290 297 296 299 302 304 303 299 299 306 304 308 311 313 318 316 308 299 293 292 290 287 285 285 287 285 282 279 278 278 279
287 291 293 296 299 305 307 306 298 290 291 294 299 301 306 310 310 309 306 297 293 291 289 285 283 284 285 285 285 283 284 285 284
291 294 293 292 292 297 297 296 296 295 293 296 303 299 305 311 312 309 306 303 296 292 289 287 285 282 281 281 279 279 282 283 282
286 290 292 291 294 296 296 296 293 289 284 285 290 293 300 304 304 305 304 303 298 293 289 286 285 284 284 283 284 282 279 277 276
288 290 288 290 292 295 296 292 293 290 287 287 289 291 294 296 298 299 299 297 296 295 292 289 287 286 284 284 285 284 281 279 279
288 289 291 294 297 296 296 295 293 293 290 288 290 291 293 294 294 295 295 295 291 290 289 290 290 288 287 285 286 285 285 283 282
288 290 294 295 295 297 293 292 293 292 291 291 290 289 289 290 291 292 291 290 285 283 285 288 289 289 287 287 287 288 288 287 283
290 294 294 295 295 294 294 293 291 290 288 288 289 288 287 287 287 287 287 285 283 284 284 284 285 285 285 284 283 285 285 285 284
290 292 294 294 293 292 291 290 291 288 287 289 289 287 286 285 284 284 284 283 283 284 283 285 287 285 284 285 285 285 284 281 279
Height
5916 5915 5913 5911 5908 5906 5904 5902 5899 5896 5894 5891 5887 5884 5881 5877 5873 5868 5862 5864 5867 5866 5866 5875 5873 5886 5885 5893 5894 5896 5896 5897 5898
5915 5913 5911 5909 5907 5905 5903 5901 5898 5896 5892 5889 5886 5881 5878 5874 5867 5859 5853 5854 5858 5862 5865 5875 5855 5872 5875 5886 5888 5890 5891 5891 5892
5913 5912 5910 5908 5905 5902 5901 5899 5897 5894 5891 5888 5884 5880 5875 5871 5864 5855 5845 5844 5852 5853 5858 5864 5866 5869 5875 5880 5883 5884 5886 5887 5887
5909 5909 5909 5907 5904 5901 5899 5897 5895 5892 5889 5886 5883 5878 5873 5868 5863 5857 5851 5848 5847 5852 5856 5859 5863 5867 5872 5874 5877 5879 5881 5881 5881
5908 5906 5906 5904 5901 5899 5897 5895 5892 5889 5886 5883 5880 5876 5871 5867 5863 5858 5854 5852 5851 5850 5854 5854 5853 5862 5867 5870 5873 5874 5874 5875 5876
5907 5904 5903 5902 5899 5896 5895 5892 5889 5887 5883 5880 5876 5874 5871 5867 5864 5862 5859 5858 5855 5855 5855 5855 5857 5860 5862 5864 5865 5864 5865 5869 5870
5901 5902 5900 5900 5895 5894 5891 5890 5887 5884 5881 5878 5875 5871 5869 5866 5862 5860 5858 5857 5858 5856 5854 5855 5856 5858 5858 5859 5861 5860 5859 5861 5865
5898 5897 5896 5895 5892 5889 5887 5885 5883 5881 5878 5876 5873 5870 5867 5864 5862 5858 5857 5856 5855 5856 5855 5855 5855 5856 5857 5855 5855 5853 5856 5856 5857
5893 5893 5891 5891 5887 5884 5882 5880 5878 5877 5875 5872 5869 5867 5864 5861 5859 5856 5854 5853 5853 5852 5852 5852 5852 5853 5853 5853 5852 5853 5854 5852 5852
5888 5887 5887 5883 5883 5881 5878 5875 5873 5871 5869 5868 5865 5862 5860 5857 5855 5853 5850 5849 5849 5848 5848 5848 5849 5849 5849 5849 5849 5850 5849 5847 5845
5881 5881 5880 5878 5874 5873 5872 5868 5867 5866 5864 5863 5862 5859 5856 5853 5851 5849 5847 5846 5844 5843 5842 5842 5842 5842 5843 5843 5843 5843 5842 5842 5840
5874 5873 5873 5872 5868 5865 5864 5861 5859 5858 5857 5855 5855 5853 5851 5849 5846 5844 5842 5840 5839 5838 5837 5836 5835 5835 5834 5835 5835 5835 5835 5835 5834
5869 5866 5865 5864 5862 5858 5855 5853 5853 5851 5850 5848 5846 5846 5845 5842 5840 5838 5836 5834 5832 5831 5830 5830 5829 5827 5827 5827 5827 5827 5827 5827 5827
5860 5858 5858 5857 5855 5855 5852 5849 5846 5844 5842 5840 5840 5837 5835 5833 5831 5829 5828 5826 5824 5823 5822 5821 5820 5820 5820 5819 5819 5819 5819 5817 5817
5851 5849 5851 5850 5848 5846 5845 5841 5839 5838 5835 5833 5833 5831 5828 5825 5824 5821 5818 5818 5816 5815 5814 5813 5811 5810 5810 5810 5810 5810 5811 5810 5808
5845 5843 5843 5843 5841 5838 5836 5833 5831 5829 5827 5824 5823 5821 5818 5816 5815 5813 5811 5809 5807 5805 5803 5802 5802 5801 5800 5800 5800 5800 5800 5800 5799
5838 5836 5836 5834 5832 5829 5827 5823 5820 5817 5816 5814 5813 5811 5809 5806 5804 5803 5801 5799 5797 5796 5794 5791 5790 5789 5788 5788 5788 5787 5786 5787 5787
5830 5829 5827 5825 5822 5819 5816 5813 5809 5806 5804 5802 5801 5799 5797 5795 5793 5791 5789 5788 5787 5786 5784 5782 5780 5778 5776 5775 5774 5774 5773 5772 5774
5821 5819 5816 5814 5811 5807 5804 5801 5798 5794 5792 5790 5788 5787 5785 5783 5781 5779 5778 5775 5775 5773 5772 5771 5769 5767 5765 5764 5762 5762 5761 5760 5760
5812 5809 5804 5802 5799 5796 5792 5789 5786 5782 5780 5778 5777 5775 5773 5771 5769 5767 5765 5764 5762 5761 5760 5756 5755 5754 5752 5750 5749 5748 5747 5747 5746